Terminal Aerodrome Forecast
Issued by NWS Duluth, MN

Home | Current Version | Previous Version | Text Only | Print | Product List | Glossary On
Versions: 1 2 3 4 5 6 7 8 9 10 11 12 13 14 15 16 17 18 19 20 21 22 23 24 25 26 27 28 29
000
FTUS43 KDLH 181200 AAA
TAFDLH
TAF AMD
KDLH 181201Z 1812/1912 10010KT P6SM SCT015 BKN035
      TEMPO 1812/1814 OVC015
     FM181500 10010KT P6SM SCT025 SCT050
     FM190200 13010KT P6SM OVC025
     FM190600 16008KT P6SM OVC015 WS020/20035KT=

USA.gov is the U.S. government's official web portal to all federal, state and local government web resources and services.